Wind_Speed
9 6 5 9 11 11 11 11 10 11 10 9 10 10 12 13 16 20 20 19 20 20 15 12 9 12 11 13 9 22 25 18 11 6 11 17 13 13 10 13 16 13 11 11 10
8 6 6 10 12 12 11 10 10 10 10 10 11 11 12 14 15 19 21 22 22 16 12 9 10 21 22 19 17 14 18 22 10 11 18 16 17 14 17 15 14 13 9 8 9
8 7 8 12 13 12 10 9 9 9 10 12 12 13 15 17 19 20 23 21 18 17 15 9 9 10 21 22 20 20 17 16 9 9 12 17 16 21 19 13 14 15 13 11 9
8 9 11 13 14 12 9 9 8 9 10 12 12 13 17 19 19 19 18 19 18 16 10 9 7 4 17 23 18 23 20 21 11 9 6 12 22 19 19 19 14 13 13 12 11
8 10 12 13 12 11 9 8 8 9 10 12 14 15 17 19 19 19 20 18 16 12 11 15 15 22 21 26 22 21 22 18 13 12 19 14 18 22 20 16 16 13 10 11 11
8 10 11 11 11 9 8 8 9 11 9 12 15 16 19 20 19 21 21 20 17 12 14 17 16 17 24 27 26 26 17 6 12 9 11 11 11 16 20 18 20 13 12 11 11
7 8 8 9 8 8 8 8 10 11 9 12 15 16 20 19 17 20 20 19 15 12 11 16 20 17 19 22 18 9 7 12 16 15 10 11 14 16 16 15 17 18 17 15 14
8 8 8 8 7 7 7 8 11 13 13 16 18 16 19 18 19 19 20 19 18 17 15 15 20 18 14 16 18 12 16 8 18 22 15 12 11 17 12 9 11 11 14 16 16
7 8 8 8 8 8 9 10 13 14 12 19 21 23 16 16 20 20 19 20 19 19 17 18 23 16 9 14 14 16 13 10 8 16 18 12 16 20 20 11 10 6 8 12 15
6 8 9 8 9 10 10 12 12 14 14 16 21 18 17 19 23 22 21 18 13 17 20 23 20 12 2 8 12 15 11 10 12 20 23 18 12 14 25 12 12 11 8 11 12
5 6 8 9 10 12 12 12 13 16 19 20 20 19 19 23 22 22 19 13 12 14 15 16 16 7 8 6 5 9 7 5 16 19 12 7 11 13 19 26 17 15 17 13 12
4 4 6 7 9 9 10 11 13 14 15 16 15 15 15 24 20 17 15 14 14 14 15 17 11 4 7 5 3 4 8 3 11 15 14 16 8 8 16 18 22 22 21 19 12
8 6 5 5 6 7 8 9 10 11 13 14 14 14 16 16 15 14 14 14 13 12 13 13 15 3 10 8 9 8 7 8 20 23 21 16 3 4 26 28 12 27 28 22 19
13 11 9 8 7 7 7 8 8 10 11 12 12 14 13 13 13 14 12 12 12 12 13 14 15 10 12 14 16 11 11 10 19 21 13 14 1 10 27 28 12 16 22 24 29
17 16 14 12 10 10 9 8 7 8 8 10 10 13 13 15 12 14 16 14 13 13 14 12 12 12 12 13 17 14 19 22 16 12 12 3 10 19 27 28 16 19 19 24 36
23 21 20 18 15 14 13 11 10 10 10 9 9 10 10 13 11 12 13 13 15 14 13 12 13 14 14 14 14 16 21 22 18 16 13 7 15 21 34 8 19 11 24 29 36
28 26 24 23 21 19 18 15 13 13 10 14 13 10 10 11 12 12 12 13 13 14 12 14 11 9 7 13 16 17 21 22 20 17 12 14 22 21 29 30 31 21 21 31 34
33 30 29 27 26 24 23 19 16 15 7 13 17 13 13 14 13 14 15 15 14 16 18 19 18 16 10 14 21 19 18 20 23 21 20 18 23 21 23 31 25 14 25 31 29
37 35 33 32 31 30 28 22 21 24 23 21 23 17 16 16 17 19 18 18 19 20 21 22 19 17 19 11 21 22 27 22 23 23 26 20 19 20 22 27 20 23 29 32 35
39 39 38 35 35 34 32 25 26 31 30 30 25 21 16 3 15 19 20 21 17 18 21 22 24 17 20 25 20 20 25 26 24 31 31 24 18 16 20 29 35 36 38 39 38
38 40 37 39 39 38 34 29 29 31 31 30 27 29 28 21 22 22 24 6 15 19 23 20 25 24 23 22 30 23 23 29 27 28 25 24 21 18 19 22 31 38 40 36 36
40 39 36 37 37 37 34 32 33 35 37 38 35 32 31 31 31 30 32 23 22 21 23 18 23 25 25 25 21 19 20 24 27 32 31 27 24 27 25 24 34 33 28 33 36
42 42 37 36 36 35 33 32 34 35 38 38 40 36 36 35 37 40 40 33 31 32 33 35 33 31 28 24 14 18 25 28 32 30 29 26 31 33 33 26 38 33 27 36 43
36 42 41 40 38 37 36 35 35 35 36 40 43 40 36 39 40 42 41 34 38 39 41 43 42 40 36 28 23 24 30 31 31 30 30 34 31 37 37 34 29 29 31 39 37
31 38 43 44 43 40 38 35 37 38 39 42 42 37 35 36 39 38 36 36 34 44 46 44 42 40 38 38 33 35 27 19 22 31 39 45 40 40 37 45 35 42 50 30 35
27 28 27 25 31 34 37 35 37 37 39 42 43 40 41 40 41 43 44 42 43 38 43 44 43 35 30 30 33 38 38 31 27 31 34 43 37 41 41 45 46 42 49 52 46
25 28 27 27 27 26 26 27 30 33 35 38 37 32 39 44 46 45 44 40 36 34 36 40 43 33 34 27 25 28 27 31 34 39 37 43 41 38 45 47 44 45 55 60 54
Wind_Direction
147 138 135 161 169 157 155 156 151 146 146 151 149 149 154 157 166 169 164 163 165 166 162 152 130 106 125 124 128 87 79 75 85 10 17 40 37 17 27 39 21 28 16 22 29
174 165 144 155 162 163 156 156 153 148 154 153 151 147 148 151 150 155 160 166 168 159 159 166 148 129 122 119 103 91 83 65 27 34 5 30 29 33 74 40 30 27 16 11 15
177 165 152 153 159 161 159 155 151 148 159 156 152 145 142 145 150 155 161 162 154 165 176 166 168 150 126 113 115 101 73 89 74 41 37 37 30 30 31 29 39 24 23 13 358
169 156 151 154 158 160 157 154 152 146 155 151 150 143 141 148 151 157 155 158 162 175 158 128 157 135 86 105 98 78 86 59 62 30 48 53 49 54 33 27 29 36 25 25 15
161 159 158 162 162 162 161 159 152 149 158 150 154 148 147 146 155 161 159 156 170 158 144 145 162 111 120 104 99 68 47 61 59 39 38 3 29 55 49 31 27 29 30 24 22
162 163 160 157 162 167 171 162 153 148 154 154 161 154 149 146 161 158 153 153 160 153 142 159 142 102 123 93 92 70 53 26 352 74 68 38 37 38 52 37 30 19 22 24 16
172 176 170 171 174 172 169 158 153 149 158 162 159 158 155 148 152 152 149 149 150 144 115 123 116 113 106 94 77 75 93 49 25 20 16 36 27 27 44 48 44 36 36 32 24
180 182 182 178 175 171 165 158 147 146 136 151 155 160 158 154 152 154 150 146 146 145 134 117 110 121 110 105 111 90 79 44 2 351 332 11 17 10 43 54 52 33 25 30 27
173 178 181 179 171 165 165 160 155 147 125 135 146 144 149 154 162 156 151 143 145 134 131 127 123 138 125 74 87 76 62 59 5 341 334 0 9 3 344 16 66 35 5 16 23
159 162 165 163 161 162 161 155 160 152 150 149 152 159 160 168 167 163 155 146 138 141 139 142 139 141 33 85 94 96 48 41 353 316 329 324 333 337 360 0 17 58 40 1 12
136 152 153 157 152 147 140 131 132 134 147 150 147 145 144 147 162 162 159 155 148 148 153 163 158 149 104 169 156 101 99 67 343 312 338 21 21 5 342 349 353 5 3 34 16
175 147 132 148 153 158 145 134 143 147 150 151 147 143 145 147 157 163 166 170 166 168 163 163 148 40 7 285 316 193 162 6 313 290 304 339 21 328 278 321 305 312 343 353 46
217 206 185 157 143 155 160 166 165 162 159 155 158 158 160 158 160 169 177 180 181 190 186 202 184 139 252 271 254 179 162 287 276 269 275 294 52 305 291 313 331 300 319 343 346
225 222 216 207 194 180 170 166 174 181 178 179 179 187 178 181 182 192 203 207 209 211 229 219 226 187 236 291 274 218 197 270 272 272 295 272 272 332 305 294 338 270 316 309 332
231 232 224 223 218 214 207 201 201 199 194 184 190 199 200 206 211 209 215 214 223 226 232 223 238 223 234 262 256 239 232 246 281 307 340 59 326 308 297 308 289 315 305 304 316
236 235 234 228 224 226 226 221 222 232 233 185 213 196 195 224 214 223 223 229 234 242 249 260 270 267 270 259 276 277 258 276 289 289 284 311 317 303 299 333 297 292 288 280 307
236 235 237 237 233 228 228 227 230 241 253 238 220 215 223 233 235 239 231 237 242 248 253 250 255 278 307 286 278 282 287 289 284 280 289 306 312 310 327 321 319 305 268 266 280
232 233 235 235 237 235 232 228 226 231 208 278 249 221 229 238 241 250 254 256 251 257 259 260 249 233 264 315 299 293 295 288 287 282 280 232 253 278 311 299 306 266 268 270 285
234 232 232 234 234 234 233 227 223 221 221 214 241 252 249 246 256 249 242 256 260 262 259 260 264 264 253 226 279 298 292 290 286 282 282 282 266 253 272 281 278 251 257 267 272
235 233 231 234 235 236 235 227 228 234 239 239 241 243 226 192 294 285 278 264 268 274 277 270 263 251 231 218 224 255 274 277 271 290 285 279 274 287 301 287 294 295 293 279 275
235 234 231 234 234 236 236 232 228 236 240 247 246 237 243 191 199 243 273 278 302 300 297 276 265 259 255 243 241 230 262 280 294 292 293 284 274 282 281 291 290 286 292 280 263
233 235 227 234 236 238 238 236 233 237 244 245 241 237 244 231 207 203 219 197 219 218 235 249 262 254 256 255 245 265 272 261 273 281 283 290 295 285 282 281 262 275 271 268 256
233 235 234 233 236 237 234 234 233 236 241 243 248 243 238 239 241 239 248 214 217 217 224 238 243 256 259 256 256 249 252 255 253 262 276 270 266 263 274 265 265 278 271 292 291
232 233 232 232 233 237 237 238 238 233 236 242 247 249 245 240 235 238 245 239 226 237 240 237 244 247 255 256 214 235 233 243 248 255 246 249 255 259 255 264 273 263 252 255 255
231 232 234 235 234 233 235 236 237 238 235 240 246 249 250 247 249 250 251 248 233 237 249 258 260 258 260 258 240 228 237 249 279 251 254 242 252 236 246 253 262 271 266 269 270
236 239 240 240 242 243 242 238 239 239 241 246 247 244 246 247 247 245 247 249 251 240 244 249 259 272 268 259 252 236 239 239 250 263 264 273 262 257 245 260 254 259 281 279 270
232 227 228 225 226 231 233 234 237 239 242 245 246 249 246 243 249 253 259 266 270 270 262 254 249 247 256 257 249 243 238 246 255 255 263 274 274 275 277 282 263 264 273 274 273
Height
5902 5903 5904 5904 5905 5906 5907 5909 5910 5912 5912 5913 5915 5916 5918 5919 5922 5925 5929 5932 5934 5936 5939 5940 5941 5941 5947 5949 5946 5941 5947 5947 5947 5951 5948 5946 5944 5943 5943 5943 5940 5940 5940 5941 5940
5903 5904 5904 5904 5906 5907 5909 5910 5911 5912 5913 5915 5915 5917 5918 5921 5923 5926 5929 5931 5934 5940 5942 5942 5942 5939 5940 5944 5946 5948 5949 5946 5953 5952 5949 5947 5945 5944 5943 5943 5943 5943 5943 5942 5942
5903 5905 5905 5905 5907 5908 5910 5911 5912 5913 5914 5915 5916 5917 5919 5922 5924 5926 5928 5933 5939 5940 5941 5942 5946 5944 5942 5944 5947 5949 5952 5954 5955 5956 5953 5950 5947 5942 5943 5943 5943 5943 5943 5942 5942
5903 5905 5906 5907 5908 5910 5911 5912 5913 5914 5914 5916 5917 5919 5921 5923 5926 5927 5931 5936 5939 5940 5945 5947 5949 5947 5946 5949 5952 5953 5953 5954 5958 5957 5955 5952 5948 5947 5945 5944 5944 5944 5944 5944 5943
5904 5905 5907 5908 5909 5911 5912 5912 5913 5914 5915 5917 5918 5920 5923 5925 5927 5929 5933 5938 5939 5943 5944 5945 5946 5949 5948 5950 5953 5951 5954 5955 5960 5958 5955 5954 5951 5949 5948 5947 5945 5945 5945 5945 5945
5905 5906 5908 5909 5910 5911 5912 5913 5914 5915 5915 5917 5919 5921 5924 5926 5928 5931 5934 5938 5940 5943 5946 5946 5949 5952 5948 5949 5955 5952 5954 5960 5959 5960 5960 5959 5954 5952 5951 5949 5948 5947 5946 5946 5945
5906 5907 5909 5909 5910 5912 5913 5913 5914 5915 5916 5916 5919 5922 5925 5928 5931 5933 5935 5939 5942 5945 5947 5951 5952 5957 5952 5950 5953 5955 5959 5963 5960 5959 5960 5958 5955 5952 5952 5952 5951 5950 5948 5947 5946
5906 5907 5908 5910 5911 5912 5913 5914 5915 5916 5917 5918 5920 5923 5926 5929 5932 5935 5937 5940 5943 5946 5951 5954 5953 5955 5954 5953 5955 5957 5956 5960 5960 5960 5959 5957 5956 5953 5953 5955 5953 5951 5950 5948 5946
5907 5908 5908 5910 5911 5912 5913 5914 5916 5917 5918 5919 5922 5925 5928 5931 5934 5936 5939 5941 5944 5946 5951 5953 5954 5954 5959 5955 5957 5960 5961 5961 5962 5962 5962 5959 5956 5956 5952 5954 5953 5953 5951 5949 5947
5908 5909 5909 5910 5912 5913 5914 5915 5916 5918 5919 5921 5923 5927 5929 5931 5934 5937 5940 5943 5946 5947 5949 5952 5953 5956 5956 5957 5956 5959 5962 5962 5962 5962 5961 5959 5957 5957 5955 5953 5951 5953 5953 5950 5948
5909 5909 5910 5911 5913 5914 5915 5917 5920 5922 5921 5922 5925 5927 5928 5930 5936 5938 5941 5943 5946 5948 5950 5951 5952 5954 5955 5958 5958 5955 5962 5965 5964 5962 5962 5961 5959 5956 5955 5952 5950 5950 5949 5949 5949
5910 5910 5911 5912 5913 5915 5916 5919 5921 5922 5924 5926 5927 5929 5932 5931 5936 5939 5942 5945 5947 5948 5950 5951 5952 5955 5956 5957 5957 5959 5963 5964 5964 5960 5959 5958 5959 5959 5953 5953 5950 5948 5947 5944 5946
5910 5911 5912 5913 5914 5915 5916 5918 5919 5922 5924 5927 5928 5931 5932 5935 5936 5940 5942 5944 5946 5948 5950 5951 5950 5954 5957 5957 5957 5958 5960 5961 5960 5957 5956 5957 5956 5955 5951 5950 5945 5947 5947 5942 5943
5909 5910 5911 5913 5916 5916 5917 5918 5919 5921 5924 5927 5929 5931 5933 5935 5937 5939 5941 5944 5945 5947 5949 5948 5948 5951 5954 5956 5955 5957 5956 5956 5954 5953 5954 5956 5955 5952 5948 5948 5946 5948 5941 5940 5941
5906 5907 5910 5911 5913 5915 5916 5917 5919 5921 5924 5928 5929 5929 5931 5934 5937 5937 5938 5940 5943 5944 5946 5947 5946 5947 5949 5951 5951 5953 5952 5950 5951 5951 5953 5953 5951 5949 5950 5947 5943 5943 5942 5937 5938
5901 5903 5906 5909 5911 5913 5914 5916 5918 5921 5921 5925 5925 5926 5929 5930 5933 5934 5936 5938 5939 5940 5942 5944 5944 5944 5945 5946 5947 5949 5948 5947 5948 5947 5948 5948 5949 5947 5941 5942 5944 5935 5938 5937 5935
5896 5898 5901 5903 5906 5909 5911 5914 5917 5917 5919 5921 5922 5924 5926 5927 5929 5930 5933 5934 5936 5937 5938 5939 5940 5942 5944 5944 5945 5945 5944 5944 5944 5943 5943 5943 5944 5944 5941 5942 5933 5940 5936 5933 5932
5888 5892 5895 5898 5900 5902 5905 5911 5914 5914 5913 5915 5917 5921 5923 5924 5926 5927 5928 5930 5932 5933 5934 5935 5938 5938 5939 5939 5940 5940 5940 5939 5937 5937 5938 5939 5936 5939 5941 5935 5936 5932 5931 5932 5934
5881 5884 5888 5891 5893 5896 5900 5906 5907 5905 5907 5910 5912 5915 5918 5920 5921 5922 5925 5927 5928 5929 5930 5929 5932 5933 5932 5935 5937 5937 5934 5935 5933 5933 5932 5935 5936 5937 5936 5935 5932 5929 5929 5927 5926
5871 5875 5880 5883 5886 5889 5894 5902 5901 5900 5903 5904 5908 5912 5913 5917 5919 5918 5919 5921 5924 5923 5922 5924 5925 5928 5930 5930 5931 5932 5934 5933 5933 5928 5926 5929 5928 5931 5932 5931 5925 5926 5922 5922 5920
5861 5865 5873 5872 5877 5882 5888 5895 5894 5895 5898 5901 5905 5905 5907 5909 5912 5913 5916 5919 5919 5917 5917 5918 5918 5922 5922 5926 5927 5928 5928 5927 5925 5924 5922 5922 5927 5929 5926 5927 5925 5922 5914 5908 5912
5851 5855 5863 5864 5870 5874 5880 5884 5887 5887 5889 5890 5895 5898 5901 5903 5904 5905 5906 5911 5910 5910 5911 5914 5911 5912 5915 5918 5921 5922 5922 5923 5921 5919 5919 5920 5922 5917 5918 5920 5917 5910 5907 5905 5902
5841 5845 5853 5856 5861 5865 5870 5873 5877 5880 5880 5883 5885 5890 5892 5896 5897 5896 5897 5904 5902 5903 5904 5906 5906 5906 5907 5912 5916 5917 5916 5915 5915 5914 5915 5914 5914 5911 5909 5909 5906 5902 5902 5900 5900
5833 5836 5841 5846 5852 5856 5860 5865 5868 5871 5872 5873 5874 5879 5882 5883 5885 5889 5891 5899 5897 5892 5893 5895 5897 5900 5901 5903 5905 5904 5904 5907 5908 5906 5902 5904 5902 5899 5900 5897 5893 5891 5892 5890 5885
5823 5824 5834 5837 5842 5845 5850 5856 5858 5861 5863 5864 5866 5870 5873 5875 5877 5880 5883 5885 5891 5888 5885 5885 5888 5890 5893 5893 5897 5896 5897 5898 5897 5895 5891 5890 5889 5882 5890 5886 5886 5883 5880 5879 5878
5820 5824 5829 5833 5836 5840 5843 5846 5849 5853 5855 5855 5858 5861 5862 5864 5866 5866 5868 5871 5874 5880 5877 5878 5877 5879 5880 5881 5885 5888 5888 5889 5887 5880 5878 5878 5883 5881 5881 5880 5881 5877 5873 5873 5870
5814 5817 5820 5824 5827 5831 5835 5837 5840 5843 5846 5847 5847 5849 5849 5851 5854 5857 5861 5866 5868 5867 5869 5870 5870 5871 5869 5873 5873 5874 5879 5878 5875 5872 5871 5869 5867 5869 5870 5871 5870 5870 5864 5858 5860